Home > Weather > Phuket > Past weeks

Flag for Thailand Past Weather in Phuket, Thailand — Yesterday and Last 2 Weeks

Now
77 °F

Passing clouds.


Feels Like: 78 °F
Forecast: 78 / 86 °F
Wind: No wind

Location: Phuket Airport

Current Time: Jul 25, 2016 at 11:11:16 PM

Latest Report: Jul 25, 2016 at 10:30 PM


Visibility: 5 mi

Pressure: 29.89 "Hg

Humidity: 89%

Dew Point: 73 °F

Location of PhuketLocation

Past Weather in Phuket — Graph

°F

Phuket Temperature Yesterday

Maximum temperature yesterday: 86 °F (at 10:30 AM)
Minimum temperature yesterday: 77 °F (at 1:00 AM)
Average temperature yesterday: 80 °F

High & Low Weather Summary for the Past Weeks

 TemperatureHumidityPressure
High90 °F (Jul 16, 12:30 PM)94% (Jul 11, 7:00 PM)29.95 "Hg (Jul 11, 7:00 PM)
Low75 °F (Jul 19, 2:00 AM)55% (Jul 23, 3:00 PM)29.74 "Hg (Jul 12, 2:30 PM)
Average82 °F79%29.84 "Hg
* Reported Jul 10 10:00 PM — Jul 25 10:00 PM, Phuket, Weather by CustomWeather, © 2016

Note: Actual official high and low records may vary slightly from our data, if they occured in-between our weather recording intervals... More about our weather records

Advertising

Phuket Weather History for the Previous 24 Hours

Scroll right to see more
 ConditionsComfort  
Time TempWeatherWind HumidityBarometerVisibility
10:00 PM
Mon, Jul 25
77 °FPassing clouds.No wind89%29.89 "Hg5 mi
9:30 PM77 °FPassing clouds.1 mph89%29.89 "Hg5 mi
9:00 PM79 °FPassing clouds.No wind84%29.86 "Hg5 mi
8:30 PM79 °FPassing clouds.No wind84%29.86 "Hg5 mi
8:00 PM79 °FPassing clouds.1 mph84%29.83 "Hg5 mi
7:30 PM79 °FPartly cloudy.2 mph84%29.83 "Hg5 mi
7:00 PM82 °FPartly cloudy.3 mph70%29.80 "Hg6 mi
6:30 PM84 °FBroken clouds.5 mph66%29.80 "Hg6 mi
6:00 PM84 °FBroken clouds.5 mph66%29.80 "Hg6 mi
5:30 PM86 °FBroken clouds.8 mph62%29.77 "Hg6 mi
5:00 PM86 °FBroken clouds.10 mph59%29.77 "Hg6 mi
4:30 PM88 °FBroken clouds.8 mph59%29.77 "Hg6 mi
4:00 PM86 °FBroken clouds.5 mph66%29.77 "Hg6 mi
3:30 PM88 °FBroken clouds.8 mph62%29.77 "Hg6 mi
3:00 PM88 °FBroken clouds.6 mph62%29.80 "Hg6 mi
2:30 PM86 °FBroken clouds.6 mph66%29.80 "Hg6 mi
2:00 PM88 °FBroken clouds.7 mph62%29.83 "Hg6 mi
1:30 PM86 °FBroken clouds.8 mph66%29.83 "Hg6 mi
1:00 PM84 °FBroken clouds.5 mph70%29.86 "Hg6 mi
12:30 PM82 °FBroken clouds.6 mph79%29.86 "Hg5 mi
12:00 PM82 °FLight rain. Broken clouds.5 mph79%29.89 "Hg4 mi
11:30 AM84 °FBroken clouds.2 mph70%29.89 "Hg6 mi
11:00 AM88 °FBroken clouds.3 mph62%29.89 "Hg6 mi
10:30 AM86 °FBroken clouds.3 mph62%29.89 "Hg6 mi
10:00 AM84 °FBroken clouds.3 mph70%29.92 "Hg6 mi
9:30 AM84 °FBroken clouds.2 mph74%29.92 "Hg5 mi
9:00 AM82 °FScattered clouds.2 mph79%29.92 "Hg5 mi
8:30 AM82 °FScattered clouds.5 mph79%29.89 "Hg5 mi
8:00 AM81 °FScattered clouds.3 mph84%29.89 "Hg5 mi
7:30 AM79 °FScattered clouds.No wind89%29.89 "Hg5 mi
7:00 AM75 °FScattered clouds.2 mph94%29.89 "Hg5 mi
6:30 AM75 °FScattered clouds.2 mph89%29.86 "Hg5 mi
5:30 AM75 °FPassing clouds.1 mph94%29.86 "Hg4 mi
5:00 AM75 °FPassing clouds.2 mph94%29.86 "Hg4 mi
4:30 AM75 °FPassing clouds.2 mph94%29.86 "Hg4 mi
4:00 AM77 °FPassing clouds.2 mph89%29.86 "Hg4 mi
3:30 AM77 °FPassing clouds.2 mph89%29.86 "Hg4 mi
3:00 AM77 °FPassing clouds.2 mph89%29.86 "Hg4 mi
2:30 AM75 °FPassing clouds.1 mph94%29.86 "Hg4 mi
2:00 AM77 °FPassing clouds.2 mph89%29.86 "Hg4 mi
1:30 AM75 °FPassing clouds.1 mph94%29.86 "Hg4 mi
1:00 AM77 °FPassing clouds.1 mph89%29.89 "Hg4 mi
12:30 AM77 °FPassing clouds.1 mph89%29.89 "Hg4 mi
12:00 AM77 °FPassing clouds.2 mph89%29.92 "Hg4 mi
11:30 PM
Sun, Jul 24
77 °FPartly cloudy.1 mph89%29.92 "Hg4 mi
11:00 PM77 °FPassing clouds.No wind89%29.92 "Hg4 mi
Weather by CustomWeather, © 2016

See weather overviewHow to use our weather pages